GFSSGP_prec_cloud_057.txt.gz
Cloud_Cover
5 2 21 2 0 0 0 0 0 0 0 0 0 0 0 0 0 0 5 32 100 100 100 100 100 100 100 100 100 100 100 100 100 100 98 98 100 18 22 38 97 89 98 92 96 100 78 89 56
6 5 0 0 0 0 0 0 0 0 0 0 0 0 0 0 0 0 10 22 52 99 85 100 100 100 100 100 96 100 100 100 100 87 55 68 90 96 58 17 100 100 98 85 74 78 87 93 100
0 3 1 0 0 0 0 0 0 0 0 0 0 0 0 0 0 0 3 4 40 77 100 100 100 100 93 12 80 16 100 100 100 100 77 47 8 12 86 86 76 88 74 47 94 100 100 100 100
75 3 0 0 0 0 0 0 0 0 0 0 0 0 0 0 0 0 0 4 26 97 100 100 100 40 38 98 5 61 99 85 100 100 100 55 22 16 87 89 97 68 100 100 100 100 100 100 100
20 5 4 0 0 0 0 0 0 0 0 0 0 0 0 0 0 0 0 4 19 63 90 100 100 32 88 93 19 11 77 100 96 75 64 88 87 97 62 73 17 5 74 41 89 100 100 100 100
5 5 0 0 0 0 0 0 0 0 0 0 0 0 0 0 0 0 0 0 4 92 92 65 77 97 100 88 88 12 5 41 100 100 100 100 100 96 87 82 27 4 92 57 99 24 8 67 100
59 5 0 0 0 0 0 0 0 0 0 0 0 0 0 0 0 0 0 0 0 42 100 67 88 98 56 0 12 44 62 0 1 20 64 100 32 2 0 0 0 0 0 1 68 100 70 2 3
5 0 0 0 0 0 0 0 0 0 0 0 0 0 0 0 0 0 0 0 0 25 100 100 99 20 5 1 7 0 0 0 0 0 0 0 0 0 0 0 0 0 0 0 0 0 0 0 0
5 1 0 0 0 0 0 0 0 0 0 0 0 0 0 0 0 31 7 8 0 24 100 100 100 86 100 76 24 54 26 3 6 15 0 32 0 0 5 0 0 0 0 0 0 0 0 0 0
52 0 0 0 0 0 0 0 0 0 0 0 0 0 0 0 0 22 100 85 81 70 60 32 76 100 100 100 36 65 38 27 44 36 1 68 44 42 0 0 0 0 0 0 0 0 0 0 0
17 0 0 0 0 0 0 0 0 0 0 0 0 0 0 0 0 0 0 0 15 100 100 84 56 83 99 96 98 80 87 48 97 98 15 100 100 70 4 0 0 29 14 0 0 0 0 0 0
79 8 1 0 0 0 0 0 0 0 0 0 0 0 0 0 0 0 0 0 0 3 17 100 95 90 100 95 9 53 92 11 6 82 48 88 65 77 23 11 10 100 95 81 0 0 0 0 0
8 5 0 0 0 0 0 0 0 0 0 0 0 0 0 0 0 0 0 0 0 0 6 17 92 91 87 28 13 17 68 6 21 28 13 58 49 65 71 36 93 100 100 100 32 1 0 0 0
5 4 4 0 0 0 0 0 0 0 0 0 0 0 0 0 0 0 0 0 0 0 0 19 97 69 26 6 25 67 72 40 20 2 0 80 49 81 100 100 100 100 99 100 96 88 5 0 0
27 5 5 5 0 0 0 0 0 0 0 0 0 0 0 0 0 0 0 0 0 0 0 1 20 96 45 39 35 20 17 82 19 6 29 0 15 68 100 56 100 100 100 100 93 100 94 0 13
80 5 5 5 4 0 0 0 0 0 0 0 0 0 0 0 0 0 0 0 0 0 0 0 0 4 78 33 33 48 18 11 98 96 1 1 16 68 100 100 100 100 100 69 24 100 100 56 42
32 6 5 2 0 0 0 0 0 0 0 0 0 0 0 0 0 0 0 0 0 0 0 0 0 0 0 0 0 6 14 67 90 96 71 2 5 64 100 74 100 100 100 43 85 99 100 67 20
28 5 6 12 5 5 0 0 0 0 0 0 0 0 0 0 0 0 0 0 0 0 0 0 0 0 0 0 0 0 0 27 100 93 100 62 37 71 100 99 100 100 100 100 72 100 100 91 33
58 50 75 5 4 5 0 0 0 0 0 0 0 0 0 0 0 0 0 0 0 0 0 0 0 0 0 0 0 0 0 0 14 45 98 100 78 100 100 100 75 100 100 100 95 100 95 93 72
94 56 85 11 5 4 0 0 0 0 0 0 0 0 0 0 0 0 0 0 0 0 0 0 0 0 0 0 0 0 0 0 0 80 98 50 100 100 100 100 100 100 100 99 100 100 64 100 58
100 100 60 14 5 5 0 0 0 0 0 0 0 0 0 0 0 0 0 0 0 0 0 0 0 0 0 0 0 0 0 0 4 73 100 100 100 100 100 100 100 100 100 100 100 100 99 100 92
100 100 78 5 5 5 4 4 0 0 0 0 0 0 0 0 0 0 0 0 0 0 0 0 0 0 0 0 0 0 0 0 0 1 57 100 100 100 100 100 100 100 100 100 100 100 100 100 89
100 100 17 7 5 5 2 0 1 0 0 0 0 0 0 0 0 0 0 0 0 0 0 0 0 0 0 0 0 0 0 0 0 3 55 92 100 100 100 100 100 100 100 100 100 100 100 100 100
100 91 58 8 5 2 0 0 5 4 2 1 3 0 0 0 0 0 0 0 0 0 0 0 0 0 0 0 0 0 0 0 0 5 93 53 97 100 100 100 100 100 100 100 100 100 100 100 100
100 100 98 12 5 0 0 0 5 24 5 5 5 5 4 3 0 3 0 0 0 0 0 0 0 0 0 0 0 0 0 0 0 0 50 44 99 100 100 100 100 100 100 93 100 100 100 100 100
100 98 27 5 4 4 0 1 5 9 8 5 5 5 6 5 6 56 52 5 5 1 0 0 0 0 0 0 0 0 0 0 0 0 4 42 99 100 100 100 100 100 100 100 100 100 100 100 100
99 79 96 17 5 0 0 1 5 90 100 6 5 6 5 5 31 80 98 5 5 5 2 0 0 0 0 0 0 0 0 0 0 0 0 36 70 96 100 100 100 100 100 100 100 100 100 100 100
100 100 84 45 14 10 5 5 3 29 19 94 16 0 5 24 86 100 100 97 6 10 5 0 0 0 5 5 0 3 3 3 5 5 5 23 53 10 18 16 61 55 100 100 100 100 100 100 100
100 100 100 100 100 62 5 3 88 100 100 100 99 6 5 5 6 61 6 5 5 2 4 0 0 0 5 5 5 4 4 5 5 5 5 5 7 5 54 4 99 50 86 100 96 100 100 100 100
100 100 100 100 100 100 100 5 100 100 100 100 100 70 5 5 0 0 2 2 0 0 0 0 0 0 0 0 0 5 5 5 5 3 0 2 5 0 0 92 6 99 93 46 80 100 100 100 100

GFSSGP_prec_cloud_063.txt.gz
Cloud_Cover
100 100 27 5 1 0 0 0 0 0 0 0 0 0 0 0 0 0 1 37 100 100 95 100 95 100 100 99 100 100 100 74 99 98 79 100 100 100 100 93 31 80 99 16 99 100 97 62 100
27 5 23 20 2 0 0 0 0 0 0 0 0 0 0 0 0 0 0 99 88 91 100 72 93 100 87 100 100 100 100 100 90 88 85 92 100 100 100 81 93 100 100 100 96 100 97 97 100
5 13 2 1 0 3 0 0 0 0 0 0 0 0 0 0 0 0 0 58 100 99 90 100 95 100 100 100 100 100 100 99 97 87 62 67 68 99 98 92 97 98 69 5 54 94 100 100 97
100 31 16 25 4 3 0 0 0 0 0 0 0 0 0 0 0 0 11 31 79 100 100 100 100 100 100 100 100 100 100 100 100 100 53 93 100 80 100 100 100 100 100 99 14 34 100 92 5
70 23 8 0 4 2 0 0 0 0 0 0 0 0 0 0 0 0 0 0 4 52 100 100 100 77 66 88 98 94 65 94 100 100 100 100 85 96 100 100 100 100 19 33 6 6 86 70 19
0 77 85 0 4 5 0 0 0 0 0 0 0 0 0 0 0 0 0 0 27 11 51 100 100 100 100 100 18 79 52 31 69 89 86 59 93 98 100 69 8 51 85 39 63 54 4 0 3
5 72 58 5 91 5 0 0 0 0 0 0 0 0 0 0 0 0 47 14 28 6 29 17 76 100 100 100 100 100 100 98 60 93 88 11 5 8 11 5 4 0 0 0 0 0 0 0 0
4 67 32 31 20 45 0 0 0 0 0 0 0 0 0 0 0 0 0 52 100 25 91 0 2 6 5 27 5 5 85 96 5 5 7 0 1 5 0 0 0 0 0 0 0 0 0 0 0
11 8 0 5 100 66 0 0 0 0 0 0 0 0 0 0 0 0 0 18 93 100 4 0 0 0 3 2 22 0 71 98 8 100 96 56 0 0 0 0 0 0 0 0 0 0 0 0 0
19 13 10 3 35 30 0 0 0 0 0 0 0 0 0 0 0 0 0 0 0 17 83 34 0 0 0 0 26 8 2 93 100 100 6 0 0 0 0 0 0 0 0 0 0 0 0 0 0
98 99 11 49 86 7 2 3 0 0 0 0 0 0 0 0 0 0 0 0 0 0 0 74 99 20 2 0 11 24 36 35 8 0 0 0 0 0 0 0 0 0 0 0 0 0 0 0 0
100 100 97 5 5 13 4 0 0 0 0 0 0 0 0 0 0 0 0 0 0 0 0 0 38 73 95 25 6 7 40 35 23 28 19 0 0 0 0 0 0 0 0 0 0 0 0 0 0
89 100 74 35 98 5 1 0 0 0 0 0 0 0 0 0 0 0 0 0 0 0 0 0 0 0 18 92 99 100 57 29 13 16 100 16 88 80 4 0 0 0 0 0 0 0 0 6 0
100 100 11 5 5 96 5 2 0 0 0 0 0 0 0 0 0 0 0 0 0 0 0 0 0 0 0 27 100 100 22 64 27 1 52 100 100 100 52 54 93 18 0 95 73 97 21 38 45
76 24 40 12 68 94 46 5 5 0 0 0 0 0 0 0 0 0 0 0 0 0 0 0 0 0 48 19 34 100 100 8 49 6 12 100 100 100 100 40 100 100 100 46 99 100 100 27 67
78 22 5 26 100 98 5 48 5 1 0 0 0 0 0 0 0 0 0 0 0 0 0 0 0 0 0 26 22 11 100 12 1 94 33 53 100 100 100 87 46 100 100 96 19 100 100 100 34
49 31 5 66 100 81 97 11 5 5 0 0 0 0 0 0 0 0 0 0 0 0 0 0 0 0 0 0 7 100 85 35 0 16 16 35 60 100 100 100 56 73 100 100 100 100 100 100 100
5 7 5 100 70 73 23 9 5 4 0 0 0 0 0 0 0 0 0 0 0 0 0 0 0 0 0 0 4 78 6 0 0 0 0 0 24 36 87 100 98 74 72 88 100 100 100 100 100
5 22 71 77 19 36 94 79 57 14 0 0 0 0 0 0 0 0 0 0 0 0 0 0 0 0 0 0 0 14 0 0 0 0 0 0 11 66 56 87 100 100 100 50 56 96 100 100 100
5 6 100 100 59 57 11 56 5 4 5 4 0 0 3 1 0 0 0 0 0 0 0 0 0 0 0 0 0 0 0 0 0 0 0 0 9 67 93 75 100 100 100 100 87 82 100 99 94
19 25 82 80 91 76 13 47 5 5 5 4 0 3 5 5 0 0 0 0 0 0 0 0 0 0 0 0 0 0 10 6 0 0 0 0 0 66 68 100 100 100 100 100 100 92 71 92 51
89 13 10 5 5 7 5 50 76 87 5 16 8 5 5 5 0 0 0 0 0 0 0 0 0 0 0 0 0 0 0 1 0 0 0 0 0 31 92 100 100 100 100 100 100 100 26 86 62
86 35 5 6 5 77 48 100 100 11 5 70 31 5 5 0 0 0 0 0 0 0 0 0 0 0 0 0 0 0 0 0 0 0 0 0 8 15 81 97 100 100 100 100 100 100 80 25 100
52 100 85 95 85 31 86 77 100 91 16 54 98 51 5 5 5 1 0 0 0 0 0 0 0 0 0 0 0 0 3 5 5 5 3 15 4 6 51 100 100 100 100 100 100 100 100 100 100
100 100 96 37 6 35 56 74 100 100 100 100 100 100 55 5 7 5 4 0 0 0 0 0 0 0 0 0 0 0 0 0 5 5 5 10 16 12 0 31 100 100 100 100 100 100 100 100 100
100 100 44 11 33 42 33 68 100 95 100 100 100 100 100 88 44 5 1 0 0 0 0 0 0 0 0 0 0 0 0 5 5 5 5 5 6 6 5 50 100 100 100 100 100 100 100 100 100
100 100 100 100 29 6 7 37 100 100 100 100 100 100 100 100 100 48 5 1 0 0 0 0 0 0 0 0 0 4 3 5 5 5 5 8 5 4 5 11 100 100 100 100 100 100 100 100 94
100 100 100 100 100 100 100 100 100 100 100 100 100 100 100 100 100 100 100 61 34 5 0 0 0 0 0 0 1 2 5 37 17 5 5 5 5 5 21 86 100 100 100 100 100 100 100 100 100
100 100 100 100 100 100 100 100 100 100 100 100 100 100 100 100 100 100 100 100 100 46 9 5 5 5 5 5 6 5 6 63 81 71 15 5 2 4 17 57 100 100 100 100 100 100 100 100 100
88 70 44 90 79 89 5 26 100 100 100 100 100 100 100 100 100 100 100 100 100 100 100 98 78 82 95 98 100 100 100 47 5 5 5 5 5 0 0 22 51 98 100 100 100 100 100 100 100

GFSSGP_prec_cloud_069.txt.gz
Cloud_Cover
5 6 100 100 100 76 0 0 0 0 0 0 0 0 0 0 0 0 0 0 0 3 45 5 100 100 100 100 100 100 100 84 100 100 100 57 99 66 38 100 99 37 60 86 71 15 73 100 82
13 5 51 9 3 0 0 0 0 0 0 0 0 0 0 0 0 0 0 0 8 4 69 36 36 99 100 100 100 100 100 100 100 100 100 99 68 94 77 18 91 100 91 90 70 15 31 22 49
96 8 53 2 3 0 0 0 0 0 0 0 0 0 0 0 0 0 0 0 91 6 15 62 49 92 100 32 92 95 98 99 100 100 100 97 96 96 76 97 60 97 100 100 100 80 100 99 51
19 31 6 6 3 5 0 0 0 0 0 0 0 0 0 0 0 0 0 0 100 74 95 57 93 30 99 86 71 47 91 100 70 67 95 100 96 100 100 91 75 100 98 100 99 100 100 88 6
25 18 7 14 4 0 0 0 0 1 0 0 0 0 0 0 0 0 0 0 91 78 84 4 49 80 99 66 5 82 43 79 100 99 90 96 98 100 98 93 88 100 86 100 11 5 5 0 1
99 84 99 5 4 0 0 0 0 0 0 0 0 0 0 0 0 0 0 0 11 69 70 61 7 17 59 100 90 9 43 90 100 100 100 100 100 100 100 100 100 82 100 99 2 6 11 0 37
43 15 4 5 2 4 0 0 0 0 0 0 0 0 0 0 0 0 0 0 0 6 51 12 96 36 95 100 8 90 9 36 91 24 100 100 100 77 96 100 72 14 9 100 84 20 0 1 0
19 5 6 5 5 0 0 0 0 1 2 0 0 0 0 0 0 0 0 0 1 8 50 82 35 19 21 100 73 77 3 0 3 18 18 11 96 24 5 5 5 0 4 60 16 5 0 0 0
100 27 90 5 3 15 5 0 0 0 0 0 0 0 0 0 0 1 16 51 44 44 22 29 54 50 27 100 37 26 15 100 100 66 16 5 2 22 36 0 0 0 0 22 18 5 0 0 0
99 100 22 65 100 47 20 71 0 0 0 0 0 0 0 0 0 0 2 35 100 85 55 34 45 50 42 38 54 19 89 30 30 20 3 3 4 24 0 0 0 0 0 6 0 0 0 0 0
100 6 75 100 100 59 8 4 5 5 0 0 0 0 0 0 0 0 0 0 9 26 22 39 38 49 53 86 83 62 41 26 3 0 0 0 0 0 0 1 6 0 0 0 0 0 0 0 0
100 30 99 100 100 82 29 7 4 4 0 0 0 0 0 0 0 0 0 0 2 26 12 34 29 53 59 54 99 100 100 31 22 0 0 0 6 0 0 11 8 1 0 1 0 0 0 0 0
74 93 100 100 100 100 55 86 10 2 1 2 0 0 0 0 0 0 0 0 0 12 2 20 27 35 54 55 99 100 100 87 10 0 0 0 0 0 0 0 12 4 0 0 0 0 0 0 0
49 19 92 100 100 87 57 20 27 0 2 3 5 0 0 0 0 0 0 0 0 0 0 0 20 11 29 55 88 100 100 100 68 0 0 0 0 0 0 0 0 7 80 15 2 0 0 0 0
55 63 97 100 100 100 100 39 35 0 0 14 5 0 0 0 0 0 0 0 0 0 0 0 15 0 2 21 41 74 99 100 100 19 29 6 1 0 12 56 98 77 100 100 100 96 86 16 60
99 59 60 100 100 100 36 15 11 8 2 5 0 5 1 1 0 0 0 0 0 0 0 0 0 18 5 4 14 4 28 54 82 99 100 96 100 100 100 100 100 99 100 100 100 100 100 100 82
100 100 78 35 100 100 100 64 100 83 3 1 1 3 7 39 0 0 0 0 0 0 0 0 0 0 3 2 18 5 4 31 22 21 100 95 81 100 100 100 100 100 100 100 100 100 100 100 100
92 47 16 63 92 76 100 100 55 98 70 1 0 5 4 5 2 0 0 0 0 0 0 0 0 0 0 0 12 29 18 14 24 43 58 99 97 100 100 100 100 100 100 100 100 100 100 100 100
99 53 47 90 100 39 100 96 7 73 6 5 5 1 5 5 5 2 0 0 0 0 0 0 0 0 5 53 69 80 56 39 46 49 52 67 99 100 50 100 100 100 100 93 100 58 100 100 100
100 80 94 100 94 99 88 100 66 5 9 5 5 5 6 5 5 5 3 0 0 0 0 0 0 0 0 0 17 36 52 43 7 27 100 91 100 100 98 88 57 43 85 100 100 100 72 100 98
100 98 86 77 94 100 100 100 100 11 5 5 4 5 5 5 2 0 0 1 0 0 0 0 0 0 0 0 6 22 57 73 66 57 32 39 66 100 100 100 100 100 91 82 94 100 22 99 85
100 100 93 91 98 100 100 100 76 25 5 5 4 3 0 3 3 0 0 0 5 2 1 0 0 0 0 0 7 1 3 48 10 0 3 12 1 51 96 100 100 100 100 100 99 82 100 100 100
100 100 100 46 98 99 100 100 100 99 73 5 5 5 0 5 4 4 0 0 1 5 2 0 0 0 0 7 2 27 20 0 0 0 0 1 14 85 100 100 100 100 100 100 100 100 100 100 100
83 11 9 94 98 95 100 100 100 99 5 5 23 5 0 0 0 0 0 0 0 5 5 5 0 10 13 23 10 11 10 7 20 0 5 9 10 18 64 100 100 100 100 100 100 100 100 100 100
98 96 99 98 93 47 56 71 100 100 82 36 5 5 3 0 2 5 4 3 3 5 5 5 5 2 4 16 18 8 5 5 5 0 0 1 0 11 20 97 100 100 100 100 100 100 100 100 88
100 94 29 5 5 5 43 89 100 100 100 100 58 5 5 5 14 5 16 5 5 5 5 5 5 5 5 5 5 5 5 5 5 5 5 5 4 1 0 5 56 100 100 100 100 100 100 100 100
100 100 100 74 5 5 5 28 100 100 82 73 100 100 97 39 35 7 57 5 15 5 5 5 5 5 5 5 5 5 7 5 40 60 65 66 47 20 45 5 2 27 81 100 100 100 100 100 100
78 92 43 14 5 6 13 78 100 100 24 4 20 100 100 100 94 59 10 5 5 5 5 5 5 2 5 6 13 38 73 62 88 98 100 97 100 67 9 9 5 5 9 29 72 98 100 100 100
100 100 100 100 59 5 29 95 78 26 12 51 5 6 98 100 100 100 100 100 86 52 22 10 5 5 5 14 64 74 48 99 100 100 100 100 100 100 100 51 53 67 81 22 43 91 100 100 100
79 30 74 92 94 97 100 100 100 100 100 99 99 96 85 100 100 100 100 100 100 100 100 100 99 97 96 93 99 98 59 86 93 100 100 100 100 100 100 100 100 100 100 100 98 100 100 100 100

GFSSGP_prec_cloud_072.txt.gz
Cloud_Cover
100 94 22 0 1 5 54 19 0 0 0 0 0 0 0 0 0 0 0 0 1 65 15 99 100 86 100 77 100 100 100 83 95 100 100 100 100 98 100 100 78 90 82 88 96 99 25 8 44
100 100 100 26 7 5 9 0 0 0 0 0 0 0 0 0 0 23 5 0 0 2 51 100 100 100 100 100 100 76 100 99 100 100 100 100 100 100 100 90 86 80 94 100 100 100 58 82 78
96 19 53 44 57 14 6 0 0 0 0 0 0 0 0 0 0 0 0 0 1 1 25 76 74 100 100 100 100 100 100 100 99 100 100 100 100 100 99 78 19 10 100 91 90 63 46 32 66
7 14 40 7 5 3 5 1 0 0 0 0 0 0 0 0 0 0 0 0 0 6 0 12 100 99 85 100 99 100 81 100 100 86 50 64 100 100 100 91 5 98 82 100 100 89 66 11 5
37 5 20 5 5 5 1 4 0 0 0 0 0 0 0 0 0 0 0 0 1 38 100 4 15 79 98 78 69 9 61 50 99 80 9 25 82 100 100 76 5 98 100 100 53 52 4 0 31
100 100 85 96 81 5 0 0 0 0 0 0 0 0 0 0 0 0 0 0 3 81 68 5 56 40 48 100 63 25 27 75 100 100 100 91 98 97 100 100 92 29 100 93 28 6 38 92 100
100 100 100 28 5 5 0 2 0 0 0 0 0 0 0 0 0 0 0 0 0 23 58 93 20 100 10 99 75 5 5 4 9 37 5 47 52 7 8 77 74 42 100 93 14 14 0 0 1
100 100 95 5 5 5 1 0 0 0 0 0 0 0 0 0 0 0 0 0 0 14 22 35 38 98 63 84 31 29 9 5 12 5 5 5 5 5 5 5 51 15 55 100 89 19 18 0 0
49 74 64 31 29 26 4 4 1 1 0 0 0 0 0 0 0 4 44 71 56 53 36 40 46 47 21 58 33 76 40 8 53 3 4 6 53 27 34 2 0 0 62 100 23 26 16 0 0
100 42 56 93 15 7 60 5 5 0 0 0 0 0 0 0 0 10 28 96 100 99 96 58 55 66 39 45 69 6 55 100 30 9 84 4 12 2 0 0 0 0 28 56 19 1 0 0 1
76 42 80 91 72 97 100 69 8 2 0 0 0 0 0 2 0 0 22 85 100 100 100 77 92 83 85 89 98 46 32 18 4 0 0 0 0 0 0 8 5 1 1 0 0 0 0 0 0
97 100 98 35 92 26 90 100 100 9 0 0 0 0 0 0 0 0 0 0 66 98 92 52 54 100 100 100 100 94 53 26 16 0 0 0 1 0 0 19 7 4 4 0 0 0 0 0 0
100 100 81 80 38 27 100 100 100 88 4 0 0 0 0 0 0 0 0 0 1 35 36 43 60 100 100 100 100 100 100 40 11 0 0 0 0 0 0 5 15 8 2 0 0 0 0 0 0
100 100 99 84 66 6 100 100 100 100 6 0 0 0 0 0 0 0 0 0 0 0 11 22 73 60 100 100 100 100 100 79 41 9 0 0 0 0 0 2 13 7 10 36 22 0 0 0 0
100 100 98 81 19 54 94 100 100 100 88 0 0 0 0 0 0 0 0 0 0 0 0 16 39 41 90 100 100 100 100 100 100 48 0 0 0 0 0 7 92 74 100 99 100 97 99 90 94
100 100 97 97 49 58 36 86 100 100 72 52 6 5 1 0 0 0 0 0 0 0 0 0 12 48 50 76 99 100 100 100 100 100 20 9 100 100 100 100 100 100 100 100 99 100 100 100 100
100 100 97 73 88 82 66 49 100 100 100 100 5 13 3 1 0 0 0 0 0 0 0 0 14 33 40 44 54 77 94 100 100 100 81 41 96 100 100 100 100 100 100 98 100 100 96 100 100
100 100 31 70 100 99 69 80 83 100 97 45 71 14 5 0 2 0 0 0 0 0 0 0 0 15 28 48 64 70 62 93 100 100 99 18 25 100 100 100 100 100 100 100 100 100 100 33 100
100 87 70 82 100 100 79 31 100 52 100 100 100 0 3 0 0 0 0 0 0 0 0 0 0 0 34 88 100 100 100 100 100 83 81 100 96 100 97 100 100 100 59 94 100 100 98 14 78
100 100 100 100 100 85 78 46 64 79 95 100 99 47 1 0 0 0 0 0 0 0 0 0 0 0 16 20 44 34 80 98 100 97 72 68 100 100 98 37 94 100 100 100 100 82 52 87 100
100 100 100 100 99 58 84 90 36 5 30 100 100 25 7 1 0 0 0 0 0 0 0 0 0 0 0 0 40 59 60 82 87 93 97 93 82 97 94 100 100 79 80 87 98 100 100 100 100
100 100 70 100 60 100 62 55 100 19 18 53 99 89 39 6 0 0 0 0 0 0 0 0 0 0 0 0 14 25 46 87 56 56 27 34 72 100 100 100 100 92 100 100 100 100 100 100 100
100 100 100 100 16 99 99 98 100 100 100 85 48 97 32 4 0 4 0 0 0 0 0 0 0 0 3 7 2 25 17 5 5 5 5 13 28 36 94 100 100 100 100 100 100 100 100 100 100
100 93 100 100 39 38 38 38 100 100 87 92 98 71 77 5 5 4 0 0 0 0 0 0 0 2 9 22 18 21 21 15 44 28 27 21 16 21 32 70 100 100 100 100 100 100 100 100 100
100 100 96 100 100 98 65 82 88 95 100 90 84 5 5 5 5 5 5 5 0 0 4 5 5 15 42 55 42 41 30 27 18 7 12 17 14 19 16 47 100 100 100 100 100 100 100 100 100
100 100 100 57 36 6 9 16 5 9 100 100 22 5 5 5 5 5 5 5 2 5 5 5 5 5 5 14 24 28 36 37 31 24 30 45 18 5 15 14 26 90 100 100 100 100 100 100 100
100 89 100 75 60 6 89 85 11 28 97 53 99 100 97 16 5 5 5 5 5 5 5 5 5 5 6 5 6 5 5 5 7 18 65 98 100 100 100 100 94 87 99 94 100 100 100 100 100
100 100 100 50 30 31 14 56 88 27 33 82 43 100 100 100 97 53 10 5 4 5 5 5 5 5 5 6 45 46 10 5 5 23 14 75 66 76 81 80 77 26 5 16 39 100 100 100 100
100 100 100 100 95 28 28 55 18 21 7 9 6 66 35 89 100 100 100 96 86 53 5 4 4 5 5 5 5 5 5 5 5 5 5 5 11 22 66 72 25 15 10 36 79 88 100 100 100
100 96 86 100 92 95 45 10 30 31 27 22 17 30 88 59 57 100 100 100 100 100 99 98 95 55 23 19 5 5 13 24 18 12 49 74 62 90 94 95 100 100 100 100 100 52 100 100 100

GFSSGP_prec_cloud_075.txt.gz
Cloud_Cover
5 90 37 9 24 5 7 5 0 0 0 0 0 0 0 0 0 0 0 0 1 3 5 6 53 5 70 84 100 100 100 100 88 93 99 100 100 39 6 5 65 51 55 100 52 31 22 35 98
96 100 100 87 62 72 14 3 5 1 0 0 0 0 0 0 0 47 9 1 5 7 40 63 100 79 98 78 100 90 82 100 100 88 100 100 100 100 89 67 66 100 100 100 97 97 60 100 99
100 100 100 94 100 100 53 5 5 0 0 0 0 0 0 0 0 0 0 0 4 22 86 99 100 100 100 79 90 100 100 74 75 100 100 90 98 94 100 62 100 100 100 100 92 97 100 38 90
100 100 100 100 37 8 5 5 0 0 0 0 0 0 0 0 0 0 0 0 0 12 70 100 100 100 100 88 100 100 99 100 100 46 55 38 96 100 100 100 100 90 100 100 100 8 75 17 100
100 89 31 15 18 5 11 6 5 0 0 0 0 0 0 0 0 0 0 0 0 23 5 96 84 100 33 92 100 100 100 100 96 53 100 69 100 90 100 100 87 74 100 100 20 6 59 71 100
100 28 14 29 19 21 84 14 5 0 0 0 0 0 0 0 0 0 0 0 0 14 32 35 78 86 17 5 54 9 40 24 84 100 88 100 99 97 75 99 100 92 100 26 11 47 87 69 100
100 100 100 100 100 41 82 39 5 0 0 0 0 0 0 0 0 0 0 0 0 8 66 52 9 6 88 24 73 99 47 37 6 21 72 100 62 11 6 6 5 43 98 88 71 26 5 16 2
100 100 100 100 100 100 59 5 0 0 0 0 0 0 0 0 0 0 0 0 0 18 30 52 86 5 83 6 2 6 5 6 5 5 59 5 5 6 14 5 5 5 100 80 13 1 28 15 5
100 100 100 100 100 100 20 5 2 0 2 0 0 0 0 4 2 4 15 18 37 55 48 56 63 35 8 59 40 29 6 100 82 6 43 35 0 0 0 0 36 12 100 100 36 32 1 0 0
100 79 80 29 15 68 77 5 5 18 5 0 0 0 1 25 3 14 26 53 78 99 98 84 91 91 34 22 14 6 43 0 3 26 5 0 3 0 0 0 0 0 100 100 89 19 0 0 0
100 100 27 87 100 38 19 36 100 100 65 0 0 0 14 39 7 0 1 1 63 84 100 100 100 100 64 70 79 19 0 0 0 0 0 0 0 0 0 0 0 0 35 19 3 0 0 0 0
100 94 90 100 93 34 52 7 5 100 95 94 30 0 10 32 14 0 0 23 85 100 100 100 100 100 100 93 100 68 5 0 0 0 0 0 0 0 0 0 0 0 0 0 0 0 0 0 0
100 100 99 64 91 100 100 7 42 100 100 87 13 0 0 0 0 0 0 27 92 100 100 100 100 100 100 100 100 100 68 4 0 0 0 0 0 0 0 0 0 0 0 0 0 0 0 0 0
100 56 88 68 100 100 100 77 78 100 100 100 81 2 0 0 0 0 0 0 30 61 83 61 100 100 100 100 100 100 94 64 8 0 0 0 0 0 0 0 0 0 29 0 0 0 0 0 0
96 100 51 100 100 100 88 48 98 95 100 100 100 6 3 0 0 0 0 0 0 0 0 44 83 100 100 100 100 100 100 100 82 13 0 0 0 0 0 0 7 95 17 99 75 80 57 63 95
97 100 99 100 100 95 100 5 34 50 96 80 100 100 58 0 0 0 0 0 0 0 0 4 42 100 100 100 100 100 100 100 100 100 69 0 0 99 100 100 100 100 100 74 100 82 25 100 91
95 100 100 100 62 90 100 12 5 64 81 72 100 57 21 0 2 0 0 0 0 0 0 0 20 58 100 100 100 100 100 100 100 100 100 84 0 9 65 100 100 100 100 95 100 59 95 99 81
100 100 100 100 96 100 100 87 7 8 7 5 72 26 40 2 56 2 2 0 0 0 0 0 5 27 52 90 100 100 100 100 100 100 100 100 38 2 58 27 100 100 100 100 100 78 100 81 100
100 100 14 100 100 100 100 94 100 99 10 65 91 32 100 76 91 86 5 0 0 0 0 0 2 30 54 100 100 100 100 100 100 100 100 100 91 100 100 100 99 33 81 100 100 48 50 100 8
100 33 29 97 100 100 100 100 70 78 71 23 20 16 8 24 10 85 84 5 0 0 0 0 0 12 36 55 97 100 100 100 100 100 100 100 100 81 100 100 100 100 99 5 100 100 100 100 100
84 100 100 100 100 20 80 89 99 99 80 18 5 5 9 8 56 75 100 50 4 0 0 0 0 0 9 47 96 100 100 100 100 100 100 100 100 100 70 97 97 58 100 100 53 63 100 86 68
95 100 67 100 100 100 100 92 98 67 6 10 31 5 7 5 30 63 97 100 20 5 4 0 0 0 16 26 63 96 100 100 100 100 98 100 100 100 100 99 83 99 100 100 100 93 87 97 100
76 100 38 27 56 96 100 100 100 100 100 100 47 86 5 74 91 5 18 16 5 5 1 0 0 0 3 33 41 98 100 36 6 0 11 32 71 100 100 100 100 100 100 100 100 100 100 100 100
100 76 44 40 100 77 99 52 100 100 81 11 83 5 9 5 5 4 0 5 5 4 0 0 0 2 7 26 21 24 39 26 36 31 22 15 11 25 49 96 100 100 100 100 100 100 100 100 100
100 100 50 100 85 100 100 100 100 100 100 97 15 5 6 5 5 5 5 5 5 3 0 0 0 92 94 100 100 97 88 76 59 46 38 41 26 18 7 40 71 99 100 100 100 100 100 100 100
100 100 100 100 42 80 100 100 100 100 100 100 54 4 5 5 5 5 5 5 5 2 5 0 4 5 5 14 41 47 100 98 100 100 94 57 37 5 5 5 1 43 97 100 100 100 100 100 100
100 100 100 100 65 5 5 72 51 77 47 52 41 19 8 5 5 5 5 5 5 5 5 5 5 5 5 5 5 1 0 0 0 0 0 5 5 5 5 5 5 5 5 8 64 84 98 100 100
67 100 96 73 7 13 97 100 72 16 62 12 68 100 100 43 5 5 5 5 5 5 3 6 5 5 5 5 5 4 5 3 0 0 1 4 4 3 4 5 5 5 5 5 8 38 51 55 100
100 100 100 100 91 100 29 27 16 5 11 55 81 53 52 100 100 100 91 26 5 5 0 1 4 5 5 5 2 1 0 0 5 5 4 5 5 5 5 5 5 34 68 54 19 50 72 89 96
100 100 100 100 48 38 95 76 36 57 94 100 100 41 100 100 100 100 100 100 100 78 20 5 7 11 5 5 5 5 5 5 5 5 5 5 10 18 32 94 100 100 100 100 93 48 24 85 100